User: anonymous   Login
Location: Unspecified
(0.0000°N, 0.0000°E)
Time: 23:25:21
(UTC+02:00)
Language:

Hamsat - Orbit

View from above orbital plane
View from above orbital plane
View from above satellite
View from above satellite

Ground track
Ground track

The orbit data is extracted from the following two-line orbital elements,

1 28650U 05017B   17118.88541701 +.00000442 +00000-0 +53056-4 0  9999
2 28650 097.6470 094.9075 0022142 295.7199 064.1733 14.88635868648765
Epoch (UTC): 28 April 2017 21:15:00
Eccentricity: 0.0022142
inclination: 97.6470°
perigee height: 587 km
apogee height: 617 km
right ascension of ascending node: 94.9075°
argument of perigee: 295.7199°
revolutions per day: 14.88635868
mean anomaly at epoch: 64.1733°
orbit number at epoch: 64876

The dashed part of the orbit path shows where the satellite is in the earth's shadow,  

DLR